UA1ZBE-13 Weather Reports


Display with metric or nautical units.
time (UTC)temp
F
wind
direction
speed
MPH
gust
MPH
rain 1hr
in
rain 24hr
in
rain mn
in
humidity
%
barometer
mb
20260508035803 36 0.0 0.0 0.00 0.00 0.00 996.7
20260508034803 36 0.0 0.0 0.00 0.00 0.00 996.6
20260508033803 35 0.0 0.0 0.00 0.00 0.00 996.6
20260508032803 35 0.0 0.0 0.00 0.00 0.00 996.5
20260508031802 35 0.0 0.0 0.00 0.00 0.00 996.4
20260508030802 35 0.0 0.0 0.00 0.00 0.00 996.3
20260508025802 35 0.0 0.0 0.00 0.00 0.00 996.2
20260508024802 35 0.0 0.0 0.00 0.00 0.00 996.2
20260508023801 35 0.0 0.0 0.00 0.00 0.00 996.2
20260508022801 34 0.0 0.0 0.00 0.00 0.00 996.0
20260508021801 35 0.0 0.0 0.00 0.00 0.00 996.0
20260508020801 35 0.0 0.0 0.00 0.00 0.00 995.9
20260508015801 34 0.0 0.0 0.00 0.00 0.00 995.8
20260508014800 34 0.0 0.0 0.00 0.00 0.00 995.8
20260508013800 35 0.0 0.0 0.00 0.00 0.00 995.8
20260508012800 34 0.0 0.0 0.00 0.00 0.00 995.6
20260508011800 35 0.0 0.0 0.00 0.00 0.00 995.5
20260508010759 35 0.0 0.0 0.00 0.00 0.00 995.3
20260508005759 35 0.0 0.0 0.00 0.00 0.00 995.2
20260508004759 35 0.0 0.0 0.00 0.00 0.00 995.2
20260508003759 35 0.0 0.0 0.00 0.00 0.00 995.1
20260508002758 34 0.0 0.0 0.00 0.00 0.00 995.1
20260508001758 34 0.0 0.0 0.00 0.00 0.00 995.0
20260508000758 35 0.0 0.0 0.00 0.00 0.00 994.9
20260507235758 35 0.0 0.0 0.00 0.00 0.00 994.8
20260507234758 35 0.0 0.0 0.00 0.00 0.00 994.7
20260507233757 35 0.0 0.0 0.00 0.00 0.00 994.7
20260507232757 35 0.0 0.0 0.00 0.00 0.00 994.7
20260507231757 35 0.0 0.0 0.00 0.00 0.00 994.6
20260507230757 35 0.0 0.0 0.00 0.00 0.00 994.5
20260507225756 35 0.0 0.0 0.00 0.00 0.00 994.6
20260507224756 35 0.0 0.0 0.00 0.00 0.00 994.4
20260507223756 36 0.0 0.0 0.00 0.00 0.00 994.4
20260507222756 36 0.0 0.0 0.00 0.00 0.00 994.4
20260507221755 36 0.0 0.0 0.00 0.00 0.00 994.2
20260507220755 36 0.0 0.0 0.00 0.00 0.00 994.1
20260507215755 36 0.0 0.0 0.00 0.00 0.00 994.1
20260507214755 37 0.0 0.0 0.00 0.00 0.00 994.0
20260507213755 37 0.0 0.0 0.00 0.00 0.00 994.0
20260507212754 37 0.0 0.0 0.00 0.00 0.00 993.9
20260507211754 37 0.0 0.0 0.00 0.00 0.00 994.0
20260507210754 38 0.0 0.0 0.00 0.00 0.00 994.0
20260507205754 38 0.0 0.0 0.00 0.00 0.00 993.9
20260507204753 39 0.0 0.0 0.00 0.00 0.00 994.0
20260507203753 39 0.0 0.0 0.00 0.00 0.00 993.9
20260507202753 39 0.0 0.0 0.00 0.00 0.00 993.8
20260507201753 40 0.0 0.0 0.00 0.00 0.00 993.9
20260507200753 40 0.0 0.0 0.00 0.00 0.00 993.8
20260507195752 40 0.0 0.0 0.00 0.00 0.00 993.8
20260507194752 40 0.0 0.0 0.00 0.00 0.00 993.7
20260507193752 40 0.0 0.0 0.00 0.00 0.00 993.6
20260507192752 41 0.0 0.0 0.00 0.00 0.00 993.6
20260507191751 41 0.0 0.0 0.00 0.00 0.00 993.5
20260507190751 41 0.0 0.0 0.00 0.00 0.00 993.5
20260507185751 41 0.0 0.0 0.00 0.00 0.00 993.4
20260507184751 42 0.0 0.0 0.00 0.00 0.00 993.4
20260507183751 42 0.0 0.0 0.00 0.00 0.00 993.4
20260507182750 42 0.0 0.0 0.00 0.00 0.00 993.4
20260507181750 42 0.0 0.0 0.00 0.00 0.00 993.3
20260507180750 43 0.0 0.0 0.00 0.00 0.00 993.3
20260507175750 44 0.0 0.0 0.00 0.00 0.00 993.3
20260507174749 46 0.0 0.0 0.00 0.00 0.00 993.2
20260507173749 46 0.0 0.0 0.00 0.00 0.00 993.2
20260507172749 45 0.0 0.0 0.00 0.00 0.00 993.2
20260507171749 46 0.0 0.0 0.00 0.00 0.00 993.2
20260507170749 48 0.0 0.0 0.00 0.00 0.00 993.3
20260507165748 52 0.0 0.0 0.00 0.00 0.00 993.4
20260507164748 51 0.0 0.0 0.00 0.00 0.00 993.5
20260507163748 56 0.0 0.0 0.00 0.00 0.00 993.5
20260507162748 54 0.0 0.0 0.00 0.00 0.00 993.4
20260507161748 52 0.0 0.0 0.00 0.00 0.00 993.4
20260507160748 54 0.0 0.0 0.00 0.00 0.00 993.4
20260507155747 53 0.0 0.0 0.00 0.00 0.00 993.3
20260507154747 59 0.0 0.0 0.00 0.00 0.00 993.5
20260507153747 69 0.0 0.0 0.00 0.00 0.00 993.6
20260507152747 67 0.0 0.0 0.00 0.00 0.00 993.6
20260507151746 65 0.0 0.0 0.00 0.00 0.00 993.3
20260507150747 55 0.0 0.0 0.00 0.00 0.00 992.9
20260507145746 42 0.0 0.0 0.00 0.00 0.00 992.8
20260507144746 40 0.0 0.0 0.00 0.00 0.00 992.8
20260507143745 40 0.0 0.0 0.00 0.00 0.00 992.9
20260507142745 40 0.0 0.0 0.00 0.00 0.00 992.9
20260507141745 39 0.0 0.0 0.00 0.00 0.00 992.9
20260507140745 39 0.0 0.0 0.00 0.00 0.00 993.0
20260507135745 40 0.0 0.0 0.00 0.00 0.00 992.9
20260507134744 45 0.0 0.0 0.00 0.00 0.00 992.7
20260507133744 46 0.0 0.0 0.00 0.00 0.00 992.7
20260507132744 46 0.0 0.0 0.00 0.00 0.00 992.7
20260507131744 47 0.0 0.0 0.00 0.00 0.00 992.8
20260507130744 47 0.0 0.0 0.00 0.00 0.00 992.8
20260507125744 48 0.0 0.0 0.00 0.00 0.00 992.9
20260507124743 50 0.0 0.0 0.00 0.00 0.00 993.0
20260507123743 51 0.0 0.0 0.00 0.00 0.00 993.0
20260507122743 51 0.0 0.0 0.00 0.00 0.00 992.9
20260507121743 49 0.0 0.0 0.00 0.00 0.00 993.1
20260507120742 50 0.0 0.0 0.00 0.00 0.00 993.2
20260507115742 51 0.0 0.0 0.00 0.00 0.00 993.1
20260507114742 52 0.0 0.0 0.00 0.00 0.00 993.2
20260507113742 51 0.0 0.0 0.00 0.00 0.00 993.2
20260507112742 50 0.0 0.0 0.00 0.00 0.00 993.2
20260507111741 49 0.0 0.0 0.00 0.00 0.00 993.1
20260507110741 47 0.0 0.0 0.00 0.00 0.00 992.9
20260507105741 46 0.0 0.0 0.00 0.00 0.00 992.9
20260507104741 46 0.0 0.0 0.00 0.00 0.00 992.7
20260507103740 44 0.0 0.0 0.00 0.00 0.00 992.5
20260507102740 44 0.0 0.0 0.00 0.00 0.00 992.4
20260507101740 44 0.0 0.0 0.00 0.00 0.00 992.3
20260507100740 45 0.0 0.0 0.00 0.00 0.00 992.2
20260507095740 45 0.0 0.0 0.00 0.00 0.00 992.1
20260507094740 46 0.0 0.0 0.00 0.00 0.00 991.9
20260507093739 45 0.0 0.0 0.00 0.00 0.00 991.9
20260507092739 45 0.0 0.0 0.00 0.00 0.00 991.8
20260507091739 45 0.0 0.0 0.00 0.00 0.00 991.7
20260507090739 44 0.0 0.0 0.00 0.00 0.00 991.7
20260507085739 46 0.0 0.0 0.00 0.00 0.00 991.7
20260507084738 46 0.0 0.0 0.00 0.00 0.00 991.8
20260507083738 45 0.0 0.0 0.00 0.00 0.00 991.9
20260507082738 45 0.0 0.0 0.00 0.00 0.00 991.6
20260507081738 43 0.0 0.0 0.00 0.00 0.00 991.6
20260507080737 44 0.0 0.0 0.00 0.00 0.00 991.4
20260507075737 43 0.0 0.0 0.00 0.00 0.00 991.3
20260507074737 44 0.0 0.0 0.00 0.00 0.00 991.2
20260507073737 43 0.0 0.0 0.00 0.00 0.00 991.2
20260507072737 43 0.0 0.0 0.00 0.00 0.00 991.2
20260507071736 42 0.0 0.0 0.00 0.00 0.00 991.0
20260507070736 42 0.0 0.0 0.00 0.00 0.00 991.0
20260507065736 41 0.0 0.0 0.00 0.00 0.00 990.9
20260507064736 41 0.0 0.0 0.00 0.00 0.00 990.9
20260507063736 40 0.0 0.0 0.00 0.00 0.00 990.9
20260507062736 40 0.0 0.0 0.00 0.00 0.00 990.8
20260507061735 40 0.0 0.0 0.00 0.00 0.00 990.8
20260507060735 39 0.0 0.0 0.00 0.00 0.00 990.7
20260507055735 39 0.0 0.0 0.00 0.00 0.00 990.7
20260507054734 38 0.0 0.0 0.00 0.00 0.00 990.7
20260507053734 38 0.0 0.0 0.00 0.00 0.00 990.7
20260507052734 37 0.0 0.0 0.00 0.00 0.00 990.7
20260507051734 37 0.0 0.0 0.00 0.00 0.00 990.6
20260507050734 36 0.0 0.0 0.00 0.00 0.00 990.6
20260507045733 36 0.0 0.0 0.00 0.00 0.00 990.4
20260507044733 35 0.0 0.0 0.00 0.00 0.00 990.4
20260507043733 35 0.0 0.0 0.00 0.00 0.00 990.5
20260507042733 34 0.0 0.0 0.00 0.00 0.00 990.5
20260507041732 33 0.0 0.0 0.00 0.00 0.00 990.4
20260507040732 33 0.0 0.0 0.00 0.00 0.00 990.4